Wind_Speed
29 30 30 30 30 29 25 24 26 25 23 24 22 19 19 22 27 27 24 22 22 22 22 21 20 20 21 21 22 22 22 21 20 19 18 17 16 16 16 16 16 17 17 16 16 16 16 16 17
29 29 29 30 29 27 24 26 29 28 28 24 22 22 21 25 29 24 24 23 23 24 23 23 22 22 22 22 23 23 23 23 22 21 20 19 17 17 16 16 17 17 17 17 17 16 17 17 17
28 29 29 28 26 22 22 25 31 32 28 26 26 25 24 30 28 21 25 25 25 24 24 24 24 23 22 22 23 23 24 24 23 22 21 20 19 18 17 17 17 18 18 18 17 17 16 16 16
30 30 29 27 22 19 22 27 31 28 27 28 27 27 29 31 25 22 25 26 25 25 25 25 25 24 24 23 23 23 24 24 24 23 22 21 20 20 19 18 18 18 18 18 17 17 17 16 16
32 32 31 27 21 20 23 27 30 24 26 28 29 28 34 30 28 26 27 26 26 25 25 26 25 25 25 25 25 25 24 24 24 24 24 23 22 21 20 19 19 19 19 18 18 18 18 17 17
34 33 33 28 22 22 25 28 30 25 26 28 28 29 36 32 29 28 27 28 27 26 26 27 26 26 26 26 26 25 25 25 25 25 24 23 23 22 21 20 20 19 19 18 18 18 18 17 17
36 36 34 30 26 25 26 29 32 28 27 27 28 29 36 36 30 30 29 30 29 27 27 28 27 27 27 27 27 26 25 25 24 24 24 23 23 23 22 21 21 20 19 18 18 18 19 19 19
37 38 36 33 28 25 26 31 34 31 29 29 30 27 36 36 29 31 31 31 30 30 28 29 28 28 28 27 27 26 26 25 24 23 23 23 23 23 23 22 22 21 20 20 20 21 21 21 22
39 41 38 32 29 27 29 35 36 31 31 31 30 29 34 33 29 30 31 32 32 32 31 30 29 29 29 28 28 28 27 26 25 24 23 23 23 23 23 23 24 23 23 23 23 23 24 25 26
41 41 37 32 31 32 33 37 37 33 32 33 33 31 31 32 31 31 33 34 34 34 33 32 31 31 30 30 30 29 29 28 27 26 25 24 23 23 24 24 24 25 25 26 26 26 27 27 28
42 41 37 34 34 36 35 36 35 35 34 33 34 33 33 33 31 30 31 33 34 35 35 34 34 33 33 32 32 31 31 30 30 29 27 26 25 24 24 24 25 26 27 28 28 29 29 29 29
42 41 39 37 37 36 33 35 35 36 35 34 35 36 34 31 30 30 31 32 33 34 34 35 36 35 35 34 33 32 32 32 31 30 29 28 27 26 25 25 26 27 28 29 30 30 31 31 31
44 42 40 39 38 35 34 36 36 36 35 34 35 35 32 29 30 31 32 32 33 33 33 34 36 36 36 36 35 34 33 33 32 32 31 30 30 29 28 27 27 27 29 30 30 31 32 33 33
44 42 41 39 37 36 36 36 36 34 34 35 36 34 31 30 31 33 33 32 32 32 33 33 35 36 37 36 36 35 34 34 33 33 33 32 32 31 30 29 29 29 30 31 31 32 32 33 33
43 42 41 39 38 37 38 37 35 34 35 35 34 33 31 30 32 33 33 32 32 32 34 34 34 36 36 37 37 36 35 34 34 34 34 34 34 33 33 32 31 31 31 32 32 33 33 34 34
44 43 42 40 40 39 39 36 34 35 35 33 33 32 31 30 31 32 32 33 33 34 34 34 34 34 35 36 37 37 36 35 34 34 35 35 34 34 34 34 34 34 34 34 34 34 34 35 35
43 43 42 40 41 40 39 36 35 35 34 33 32 32 31 30 29 31 32 33 35 36 36 36 34 33 34 35 37 37 37 36 35 34 34 34 34 35 35 35 35 35 36 36 37 37 36 36 36
41 42 41 41 41 40 39 38 36 36 35 33 33 33 32 31 30 31 32 33 35 37 38 38 37 35 35 35 36 37 37 37 36 35 34 34 35 35 35 34 35 36 37 38 39 39 38 38 38
40 40 39 39 40 40 39 38 37 36 35 34 35 35 36 35 34 34 34 35 36 37 39 41 41 38 38 37 36 37 38 38 38 37 35 35 35 35 35 35 35 37 38 39 39 40 40 40 40
35 36 36 37 38 39 39 38 37 37 37 37 38 38 39 39 39 39 38 38 38 39 40 41 43 43 41 40 38 39 39 39 38 38 37 37 36 36 36 36 36 37 38 39 39 39 41 41 42
32 33 34 35 35 37 39 39 38 39 39 40 40 41 42 44 44 44 44 44 43 43 43 43 44 46 45 44 43 42 40 39 39 39 39 39 39 39 38 37 37 38 39 39 39 39 40 42 43
29 29 29 30 32 33 36 40 38 38 41 43 45 46 47 49 50 50 50 50 49 48 48 48 48 49 50 49 47 45 43 42 41 41 41 41 41 40 39 38 38 39 39 39 40 41 42 43 44
25 25 26 28 31 34 35 40 40 42 44 48 50 52 53 54 55 56 56 56 55 54 53 52 51 51 51 51 49 48 47 45 43 42 41 41 41 41 40 40 40 40 39 39 40 42 43 45 46
22 23 26 29 32 35 37 41 42 45 49 52 54 56 57 57 58 59 59 58 58 58 58 57 55 53 52 51 50 50 49 47 45 43 42 42 42 42 41 41 40 40 39 40 41 43 44 46 47
22 24 27 31 34 36 40 44 43 46 49 52 55 56 58 60 60 60 60 60 60 60 59 59 58 55 53 52 51 50 50 48 46 45 44 43 43 42 42 41 40 40 40 40 42 44 45 47 48
23 26 29 34 37 39 42 45 44 46 49 52 53 54 54 55 57 58 58 58 58 59 60 60 59 56 54 52 51 51 50 48 46 45 44 43 43 42 42 41 40 40 40 41 43 44 46 47 49
25 28 31 35 38 41 42 43 43 45 46 48 51 52 53 53 53 54 55 54 55 57 58 60 59 57 55 53 51 50 49 47 46 46 44 44 43 43 42 41 40 40 41 42 43 45 47 48 49
27 29 31 34 37 40 40 41 41 40 43 47 50 52 52 53 52 51 51 50 51 53 55 57 58 57 55 53 51 49 47 46 46 45 44 43 43 43 42 41 40 40 41 43 44 46 47 49 50
27 28 30 33 35 39 40 39 38 40 43 46 48 49 50 50 49 47 46 45 46 47 51 53 55 55 55 52 50 47 45 45 45 44 43 42 42 42 41 40 40 40 42 43 45 46 48 49 51
25 26 29 31 34 36 38 36 36 39 43 45 46 45 46 46 45 44 42 40 41 42 45 49 52 53 52 49 46 44 44 43 43 42 42 42 42 41 40 40 40 41 43 44 46 47 49 50 52
Wind_Direction
238 238 238 238 238 238 239 243 245 243 244 244 248 255 256 254 250 248 254 253 252 252 250 250 249 250 250 249 248 248 249 251 254 259 263 267 268 266 265 266 266 265 265 266 266 266 267 268 269
236 237 237 237 238 239 238 242 246 245 244 246 248 247 247 252 254 256 256 255 254 255 256 256 256 255 253 252 250 250 250 251 252 255 259 263 264 263 263 264 265 266 267 268 269 270 271 273 275
234 235 236 237 238 240 237 240 245 245 245 245 245 245 245 245 253 255 255 256 256 257 259 260 260 258 256 254 253 252 252 252 252 254 256 258 259 258 259 262 264 266 267 268 270 273 274 276 277
234 236 238 238 236 236 238 241 248 249 246 245 246 246 246 251 255 251 251 254 256 257 259 261 261 261 260 259 258 257 255 254 254 254 255 256 257 256 256 259 262 264 266 267 270 272 273 274 275
235 237 239 239 237 238 240 244 253 252 249 245 244 246 250 249 251 249 251 253 255 257 260 261 262 263 264 263 262 261 260 258 257 256 255 256 257 256 256 258 261 263 265 266 267 268 269 270 272
237 239 242 242 241 241 244 248 253 253 252 250 246 244 252 250 248 249 250 252 253 255 258 261 262 263 265 266 266 266 265 264 262 259 258 258 258 259 259 259 261 262 264 264 265 266 267 269 273
240 241 244 245 242 241 245 249 252 251 250 252 249 243 252 251 248 250 250 251 253 254 257 261 264 265 267 269 270 270 270 269 267 264 262 262 262 263 263 262 261 262 262 262 262 263 266 270 274
242 244 244 245 247 247 248 249 251 250 248 249 250 245 249 255 249 250 252 253 255 256 257 261 264 267 269 271 274 275 274 272 269 268 267 266 267 268 268 266 263 261 261 261 261 263 267 271 275
241 244 245 248 252 249 246 248 250 249 247 248 250 246 251 259 255 252 253 254 255 257 258 260 264 267 269 272 275 276 275 273 271 270 270 270 270 271 271 270 266 263 262 262 262 264 269 273 277
241 245 248 250 250 247 243 245 249 249 246 247 250 248 250 254 253 251 253 254 256 257 259 261 263 266 268 271 273 274 274 273 272 272 272 272 272 274 274 273 270 268 266 265 265 266 269 272 277
241 244 246 246 247 247 245 247 250 250 249 247 250 250 248 250 253 254 255 256 257 258 260 261 262 263 266 268 270 272 273 274 274 273 274 273 274 275 275 275 273 272 271 270 269 268 269 271 275
240 241 242 243 245 248 248 248 248 248 250 249 250 252 254 253 255 255 255 257 258 258 259 260 261 262 263 266 268 269 271 272 273 275 276 276 276 277 279 279 277 276 274 273 272 271 271 272 275
238 239 240 241 245 248 247 247 248 249 251 252 254 256 258 256 252 253 254 255 257 259 258 258 260 261 262 263 265 267 268 270 272 275 277 278 279 281 282 280 279 277 276 275 275 274 273 273 275
237 238 239 241 244 246 247 246 247 249 250 250 252 255 256 253 251 251 253 254 256 258 258 257 258 260 261 263 264 266 267 268 270 272 274 276 279 281 282 282 281 279 278 277 277 276 275 275 275
237 238 239 240 241 243 245 244 246 247 247 249 253 256 257 254 252 252 254 255 255 256 258 257 258 260 261 263 264 265 267 267 268 270 272 274 277 279 281 282 281 280 279 278 278 278 277 277 277
236 237 238 239 240 241 243 243 242 244 245 248 252 255 257 256 254 254 253 253 254 255 258 259 258 260 262 263 263 265 266 267 269 270 272 274 276 279 280 281 281 280 279 279 278 279 278 278 278
235 237 238 239 239 239 240 240 239 242 244 247 250 254 257 258 256 255 254 253 253 254 257 259 259 260 261 262 263 265 266 267 269 271 273 275 277 279 281 282 282 281 280 278 278 279 279 279 280
235 236 237 239 239 238 238 239 238 241 244 247 250 254 257 258 257 256 254 253 252 252 254 257 259 259 260 262 263 265 267 267 267 269 271 274 276 279 282 284 283 282 281 279 278 279 279 279 280
236 237 239 241 242 240 238 238 239 241 245 248 250 252 255 257 257 257 256 254 253 252 253 255 258 258 259 261 263 265 266 267 267 268 270 273 276 279 283 284 284 284 282 280 279 279 280 280 281
237 239 240 241 243 243 240 239 241 244 246 249 251 254 256 258 259 259 258 257 255 253 252 253 255 257 257 259 261 262 263 266 268 269 271 272 275 278 281 284 285 285 284 282 280 279 280 281 282
237 239 241 243 245 248 247 242 244 248 251 253 255 257 258 258 259 259 259 258 257 256 254 253 253 254 255 256 257 260 263 265 267 269 270 271 273 276 281 284 285 284 284 283 283 282 282 282 283
237 240 244 246 248 249 252 251 245 253 258 259 259 259 260 261 261 260 259 259 258 257 255 254 252 252 253 253 255 257 260 262 264 265 267 269 272 275 279 282 283 283 283 284 284 284 284 284 284
237 241 247 251 254 255 257 261 255 259 262 264 265 264 264 263 262 261 260 259 258 257 256 254 253 252 252 253 253 254 256 258 260 262 265 268 270 273 276 279 281 282 284 285 286 286 285 285 286
240 247 255 259 262 264 266 268 265 269 272 272 271 270 268 267 265 263 261 259 258 256 255 254 253 252 252 252 251 251 253 255 257 260 262 264 267 271 274 277 279 282 284 285 286 287 288 288 289
249 257 264 267 267 270 272 274 273 275 277 279 279 278 277 274 271 267 263 260 257 255 253 252 251 250 250 250 250 249 250 252 254 257 259 262 265 269 272 275 278 282 285 286 288 289 290 291 291
258 265 271 274 275 276 278 280 281 283 283 284 283 282 280 278 276 272 268 262 258 254 250 248 247 247 247 247 247 247 248 250 252 254 257 260 263 267 270 274 278 282 286 288 289 291 291 292 292
265 271 275 279 281 282 283 286 288 289 289 289 287 286 284 282 280 277 272 266 259 253 249 245 244 243 243 243 244 245 246 247 249 252 255 258 261 265 269 273 278 283 286 288 290 291 291 292 293
270 276 280 283 286 288 290 293 297 300 300 298 295 292 289 286 283 278 273 267 259 251 246 243 240 239 238 239 241 243 244 245 247 250 253 256 260 264 268 274 279 283 287 289 290 291 292 293 294
276 280 283 286 290 294 297 300 309 307 302 298 296 294 291 288 283 277 272 265 257 249 241 238 236 234 234 235 238 240 241 243 245 248 252 255 259 263 269 275 280 284 287 289 290 291 292 293 294
278 283 287 291 294 297 302 309 314 307 303 299 296 293 289 286 279 274 269 260 253 246 239 234 230 228 229 231 233 236 238 241 244 248 251 255 260 265 270 276 281 284 287 289 291 292 293 293 293
Height
5807 5809 5812 5814 5817 5820 5824 5826 5826 5828 5831 5832 5835 5837 5839 5839 5838 5841 5842 5843 5844 5844 5845 5846 5847 5848 5849 5850 5850 5851 5852 5853 5854 5854 5854 5854 5855 5854 5854 5854 5855 5855 5855 5855 5855 5855 5855 5855 5856
5803 5805 5807 5809 5812 5816 5821 5821 5821 5823 5825 5829 5832 5833 5835 5835 5833 5838 5838 5839 5840 5841 5842 5844 5845 5845 5846 5847 5847 5848 5849 5850 5850 5851 5851 5852 5852 5852 5852 5852 5852 5852 5852 5852 5852 5852 5852 5853 5853
5797 5799 5802 5805 5809 5813 5816 5815 5815 5817 5822 5825 5827 5829 5831 5829 5830 5836 5835 5835 5837 5838 5839 5840 5841 5842 5843 5843 5844 5845 5846 5846 5847 5848 5848 5848 5848 5848 5848 5848 5849 5849 5849 5849 5849 5849 5849 5849 5849
5792 5795 5798 5802 5806 5809 5810 5809 5809 5813 5817 5820 5822 5825 5825 5825 5830 5832 5831 5832 5833 5835 5836 5836 5838 5838 5839 5840 5841 5841 5842 5842 5843 5844 5844 5844 5845 5845 5845 5845 5845 5845 5845 5846 5846 5846 5846 5846 5846
5787 5790 5793 5797 5802 5805 5805 5805 5805 5809 5812 5814 5817 5819 5817 5822 5825 5827 5827 5828 5829 5831 5832 5832 5833 5834 5835 5836 5837 5837 5838 5838 5839 5839 5840 5840 5841 5841 5841 5841 5842 5842 5842 5843 5843 5843 5843 5842 5842
5782 5785 5788 5792 5798 5800 5801 5801 5801 5804 5806 5808 5812 5814 5811 5817 5820 5822 5823 5824 5825 5827 5828 5828 5829 5830 5831 5831 5832 5833 5834 5834 5834 5835 5835 5836 5836 5837 5837 5838 5838 5839 5839 5839 5839 5839 5839 5839 5839
5778 5780 5783 5787 5792 5795 5797 5797 5796 5799 5802 5804 5805 5809 5806 5809 5815 5817 5818 5819 5820 5823 5824 5824 5825 5826 5827 5828 5828 5829 5830 5830 5830 5831 5831 5832 5832 5833 5833 5834 5834 5835 5835 5836 5836 5836 5836 5836 5836
5772 5775 5777 5781 5787 5791 5793 5791 5790 5793 5796 5798 5800 5804 5799 5803 5810 5812 5813 5815 5816 5818 5820 5821 5822 5823 5824 5824 5825 5825 5826 5826 5827 5827 5828 5828 5828 5829 5829 5830 5830 5831 5831 5832 5832 5832 5832 5832 5832
5765 5768 5771 5778 5782 5785 5786 5784 5784 5787 5791 5792 5794 5797 5797 5799 5804 5807 5808 5810 5812 5813 5815 5817 5818 5819 5820 5820 5821 5821 5822 5823 5823 5824 5824 5824 5825 5825 5825 5825 5826 5826 5827 5827 5828 5828 5828 5828 5828
5758 5761 5767 5773 5775 5777 5778 5777 5778 5781 5785 5787 5789 5791 5793 5795 5798 5800 5802 5804 5806 5808 5810 5812 5813 5814 5815 5816 5816 5817 5818 5818 5819 5819 5820 5820 5821 5821 5821 5821 5821 5822 5822 5823 5823 5824 5824 5823 5823
5752 5756 5760 5764 5767 5768 5771 5772 5773 5775 5778 5782 5784 5785 5787 5789 5792 5795 5797 5798 5800 5802 5804 5806 5807 5809 5810 5811 5811 5812 5813 5813 5814 5815 5815 5816 5816 5817 5817 5817 5817 5817 5817 5817 5818 5818 5818 5818 5818
5745 5748 5752 5756 5758 5761 5765 5766 5768 5769 5772 5776 5777 5778 5781 5785 5787 5789 5791 5792 5793 5796 5798 5799 5800 5802 5803 5804 5806 5807 5807 5808 5809 5810 5810 5811 5811 5812 5812 5812 5812 5812 5812 5812 5812 5812 5812 5812 5812
5736 5740 5744 5748 5751 5756 5759 5760 5761 5763 5767 5770 5771 5773 5776 5779 5782 5783 5784 5786 5787 5789 5791 5792 5793 5794 5796 5798 5799 5801 5802 5803 5803 5804 5805 5805 5806 5806 5807 5807 5807 5806 5806 5806 5806 5806 5806 5806 5805
5728 5732 5737 5741 5745 5749 5752 5754 5755 5759 5761 5763 5764 5766 5770 5772 5775 5776 5777 5780 5782 5782 5784 5786 5787 5788 5789 5791 5793 5794 5796 5797 5798 5798 5799 5799 5800 5800 5800 5801 5801 5800 5800 5799 5799 5799 5799 5799 5798
5721 5726 5731 5735 5738 5741 5744 5748 5750 5753 5753 5755 5758 5761 5763 5765 5767 5769 5772 5773 5775 5776 5777 5778 5780 5781 5783 5784 5786 5787 5789 5790 5792 5792 5792 5793 5794 5794 5794 5794 5794 5794 5793 5793 5793 5793 5792 5792 5791
5714 5718 5723 5727 5730 5733 5738 5742 5744 5745 5747 5749 5752 5754 5756 5758 5760 5763 5765 5767 5768 5770 5770 5772 5774 5775 5777 5778 5779 5780 5782 5784 5786 5786 5786 5787 5787 5787 5788 5788 5788 5787 5787 5786 5786 5786 5785 5785 5784
5706 5711 5715 5719 5722 5725 5729 5735 5737 5738 5740 5743 5745 5747 5749 5751 5753 5756 5758 5760 5762 5763 5764 5765 5767 5770 5771 5771 5772 5774 5775 5777 5779 5780 5781 5781 5781 5781 5781 5781 5781 5780 5780 5779 5779 5778 5778 5777 5777
5699 5704 5708 5711 5714 5718 5722 5727 5730 5731 5734 5736 5739 5740 5742 5744 5746 5748 5750 5752 5754 5756 5757 5758 5760 5763 5764 5765 5766 5767 5769 5770 5772 5773 5774 5775 5775 5775 5775 5774 5774 5773 5773 5772 5771 5771 5770 5770 5769
5693 5698 5702 5705 5707 5711 5715 5719 5723 5725 5727 5730 5731 5732 5734 5736 5737 5739 5742 5744 5746 5748 5750 5751 5752 5755 5756 5758 5760 5761 5761 5762 5764 5766 5768 5768 5768 5768 5768 5768 5767 5766 5765 5765 5764 5763 5762 5761 5760
5688 5692 5695 5698 5700 5704 5708 5713 5716 5718 5720 5722 5723 5724 5726 5727 5728 5730 5732 5734 5737 5739 5741 5743 5744 5746 5748 5750 5752 5753 5753 5754 5756 5758 5760 5761 5761 5760 5760 5760 5760 5759 5758 5757 5756 5755 5754 5753 5751
5683 5686 5690 5693 5695 5698 5701 5706 5709 5711 5712 5713 5714 5715 5716 5717 5718 5720 5721 5723 5726 5728 5731 5733 5735 5736 5738 5741 5743 5744 5745 5747 5748 5750 5752 5752 5752 5753 5753 5753 5752 5751 5750 5749 5748 5747 5746 5744 5742
5678 5682 5685 5687 5690 5693 5694 5696 5704 5704 5703 5703 5704 5704 5704 5705 5706 5707 5709 5711 5713 5716 5719 5721 5723 5725 5727 5730 5733 5736 5738 5739 5740 5742 5743 5744 5745 5745 5745 5745 5744 5743 5742 5741 5740 5738 5737 5736 5734
5674 5678 5680 5682 5683 5686 5688 5688 5696 5694 5694 5692 5691 5691 5691 5692 5692 5694 5695 5697 5700 5702 5705 5708 5711 5713 5715 5719 5723 5726 5728 5730 5732 5733 5735 5736 5737 5737 5737 5737 5736 5735 5734 5733 5731 5729 5727 5726 5724
5670 5673 5675 5676 5677 5680 5681 5680 5686 5684 5681 5678 5676 5676 5675 5675 5676 5677 5679 5681 5684 5687 5690 5694 5697 5700 5704 5707 5712 5715 5718 5721 5723 5725 5726 5727 5728 5729 5729 5729 5728 5727 5725 5724 5722 5720 5718 5715 5713
5666 5669 5670 5670 5670 5673 5670 5670 5677 5673 5667 5662 5661 5659 5657 5656 5657 5659 5661 5663 5667 5670 5674 5678 5683 5687 5691 5695 5700 5703 5707 5711 5714 5716 5717 5719 5720 5720 5720 5720 5719 5718 5717 5715 5713 5711 5708 5705 5702
5661 5663 5664 5663 5663 5663 5661 5660 5663 5659 5653 5647 5645 5643 5640 5638 5637 5639 5641 5644 5647 5651 5656 5661 5666 5672 5678 5682 5687 5691 5696 5701 5704 5706 5708 5710 5711 5712 5712 5711 5711 5709 5708 5706 5704 5701 5698 5695 5692
5655 5656 5657 5656 5654 5652 5651 5650 5650 5646 5640 5634 5629 5625 5622 5620 5619 5619 5621 5623 5628 5632 5637 5643 5650 5657 5664 5669 5674 5679 5685 5690 5694 5696 5699 5701 5702 5703 5703 5702 5702 5700 5699 5697 5695 5692 5689 5685 5682
5650 5650 5650 5648 5646 5643 5642 5639 5636 5630 5625 5620 5614 5608 5605 5602 5600 5600 5601 5604 5608 5613 5619 5626 5633 5641 5649 5656 5662 5668 5675 5680 5684 5687 5690 5692 5693 5694 5694 5694 5693 5692 5690 5688 5685 5682 5678 5675 5671
5645 5645 5643 5641 5639 5635 5631 5631 5627 5620 5613 5607 5601 5595 5589 5586 5583 5582 5584 5586 5590 5594 5601 5609 5617 5626 5635 5644 5652 5659 5665 5670 5674 5678 5681 5683 5684 5685 5685 5685 5684 5683 5681 5678 5675 5672 5668 5664 5659
5639 5639 5637 5636 5633 5627 5622 5623 5617 5609 5601 5594 5588 5581 5575 5571 5567 5566 5568 5571 5574 5579 5586 5593 5602 5613 5624 5634 5643 5650 5655 5660 5665 5669 5672 5674 5676 5676 5677 5676 5675 5673 5671 5668 5665 5662 5657 5653 5648